WA7SB-7 Weather Reports


Display with metric or nautical units.
time (UTC)temp
F
wind
direction
speed
MPH
gust
MPH
rain 1hr
in
rain 24hr
in
rain mn
in
humidity
%
barometer
mb
20260504201024 58 39 0.0 0.0 0.00 0.02 0.02 85 1015.2
20260504200927 58 120 0.0 0.0 0.00 0.02 0.02 85 1015.3
20260504200524 58 243 0.0 0.0 0.00 0.02 0.02 86 1015.2
20260504200428 58 81 0.0 0.0 0.00 0.02 0.02 86 1015.3
20260504200033 58 51 0.0 0.0 0.00 0.02 0.02 86 1015.2
20260504195915 58 276 0.0 0.0 0.00 0.02 0.02 85 1015.2
20260504195514 58 107 0.0 0.0 0.00 0.02 0.02 85 1015.3
20260504195416 58 256 0.0 0.0 0.00 0.02 0.02 85 1015.3
20260504195014 58 77 0.0 0.0 0.00 0.02 0.02 85 1015.4
20260504194915 58 95 0.0 0.0 0.00 0.02 0.02 85 1015.3
20260504194517 58 281 0.0 0.0 0.00 0.02 0.02 85 1015.4
20260504194419 58 8 0.0 0.0 0.00 0.02 0.02 85 1015.4
20260504194018 58 27 0.0 0.0 0.00 0.02 0.02 85 1015.5
20260504193920 58 87 0.0 0.0 0.00 0.02 0.02 85 1015.4
20260504193520 58 316 0.0 0.0 0.00 0.02 0.02 85 1015.4
20260504193421 58 125 0.0 0.0 0.00 0.02 0.02 85 1015.3
20260504193046 58 96 0.0 0.0 0.00 0.02 0.02 84 1015.3
20260504192945 58 307 0.0 0.0 0.00 0.02 0.02 84 1015.3
20260504192551 58 239 0.0 0.0 0.00 0.02 0.02 85 1015.3
20260504192430 58 82 0.0 0.0 0.00 0.02 0.02 85 1015.3
20260504192028 58 23 0.0 0.0 0.00 0.02 0.02 85 1015.3
20260504191934 58 69 0.0 0.0 0.00 0.02 0.02 85 1015.2
20260504191528 58 72 0.0 0.0 0.00 0.02 0.02 85 1015.2
20260504191433 58 309 0.0 0.0 0.00 0.02 0.02 85 1015.2
20260504191027 58 133 0.0 0.0 0.00 0.02 0.02 86 1015.2
20260504190930 58 285 0.0 0.0 0.00 0.02 0.02 85 1015.2
20260504190532 58 40 0.0 0.0 0.00 0.02 0.02 86 1015.2
20260504190412 58 160 0.0 0.0 0.00 0.02 0.02 86 1015.2
20260504190022 57 267 0.0 0.0 0.00 0.02 0.02 87 1015.2
20260504185923 57 94 0.0 0.0 0.00 0.02 0.02 87 1015.3
20260504185522 57 79 0.0 0.0 0.00 0.02 0.02 86 1015.3
20260504185425 57 96 0.0 0.0 0.00 0.02 0.02 87 1015.3
20260504185026 57 48 0.0 0.0 0.00 0.02 0.02 86 1015.2
20260504184927 57 117 0.0 0.0 0.00 0.02 0.02 86 1015.2
20260504184529 57 136 0.0 0.0 0.00 0.02 0.02 86 1015.2
20260504184430 57 80 0.0 0.0 0.00 0.02 0.02 86 1015.2
20260504184031 57 53 0.0 0.0 0.00 0.02 0.02 87 1015.2
20260504183913 57 43 0.0 0.0 0.00 0.02 0.02 87 1015.3
20260504183515 57 263 0.0 0.0 0.00 0.02 0.02 87 1015.2
20260504183414 57 3 0.0 0.0 0.00 0.02 0.02 87 1015.3
20260504183015 56 270 0.0 0.0 0.00 0.02 0.02 87 1015.3
20260504182915 57 357 0.0 0.0 0.00 0.02 0.02 87 1015.3
20260504182513 57 326 0.0 0.0 0.00 0.02 0.02 87 1015.3
20260504182435 57 225 0.0 0.0 0.00 0.02 0.02 87 1015.2
20260504182027 57 57 0.0 0.0 0.00 0.02 0.02 88 1015.3
20260504181932 57 92 0.0 0.0 0.00 0.02 0.02 88 1015.3
20260504181527 56 41 0.0 0.0 0.00 0.02 0.02 88 1015.4
20260504181430 56 270 0.0 0.0 0.00 0.02 0.02 89 1015.3
20260504181024 56 295 0.0 0.0 0.00 0.02 0.02 88 1015.2
20260504180924 56 282 0.0 0.0 0.00 0.02 0.02 89 1015.3
20260504180528 56 83 0.0 0.0 0.00 0.02 0.02 88 1015.2
20260504180427 56 18 0.0 0.0 0.00 0.02 0.02 88 1015.3
20260504180016 56 298 0.0 0.0 0.00 0.02 0.02 88 1015.2
20260504175915 56 293 0.0 0.0 0.00 0.02 0.02 89 1015.2
20260504175514 56 98 0.0 0.0 0.00 0.02 0.02 88 1015.1
20260504175417 56 74 0.0 0.0 0.00 0.02 0.02 88 1015.0
20260504175017 56 339 0.0 0.0 0.00 0.02 0.02 88 1015.0
20260504174919 56 88 0.0 0.0 0.00 0.02 0.02 88 1015.0
20260504174520 56 277 0.0 0.0 0.00 0.02 0.02 88 1014.9
20260504174421 56 292 0.0 0.0 0.00 0.02 0.02 88 1015.0
20260504174020 56 32 0.0 0.0 0.00 0.02 0.02 88 1015.0
20260504173921 56 296 0.0 0.0 0.00 0.02 0.02 88 1015.0
20260504173523 56 242 0.0 0.0 0.00 0.02 0.02 88 1015.0
20260504173424 56 306 0.0 0.0 0.00 0.02 0.02 88 1015.0
20260504173024 57 217 0.0 0.0 0.00 0.02 0.02 88 1015.0
20260504172927 57 69 0.0 0.0 0.00 0.02 0.02 88 1015.0
20260504172526 57 75 0.0 0.0 0.00 0.02 0.02 88 1014.9
20260504172428 57 65 0.0 0.0 0.00 0.02 0.02 88 1014.9
20260504172029 57 221 0.0 0.0 0.00 0.02 0.02 89 1014.9
20260504171930 57 316 0.0 0.0 0.00 0.02 0.02 89 1015.0
20260504171526 57 282 0.0 0.0 0.00 0.02 0.02 89 1015.0
20260504171431 57 221 0.0 0.0 0.00 0.02 0.02 89 1014.9
20260504171029 57 79 0.0 0.0 0.00 0.02 0.02 90 1014.9
20260504170913 57 94 0.0 0.0 0.00 0.02 0.02 90 1014.9
20260504170534 57 118 0.0 0.0 0.00 0.02 0.02 91 1015.0
20260504170418 57 217 0.0 0.0 0.00 0.02 0.02 91 1015.0
20260504160413 54 97 0.0 0.0 0.00 0.02 0.02 93 1014.5
20260504151018 54 360 0.0 0.0 0.00 0.02 0.02 94 1014.2
20260504150919 54 72 0.0 0.0 0.00 0.02 0.02 94 1014.2
20260504150520 53 165 0.0 0.0 0.00 0.02 0.02 94 1014.2
20260504150421 53 285 0.0 0.0 0.00 0.02 0.02 94 1014.2
20260504141030 53 342 0.0 0.0 0.00 0.02 0.02 94 1014.0
20260504140912 53 308 0.0 0.0 0.00 0.02 0.02 94 1014.0
20260504140515 53 315 0.0 0.0 0.00 0.02 0.02 94 1013.9
20260504140415 53 266 0.0 0.0 0.00 0.02 0.02 94 1013.8
20260504130523 52 108 0.0 0.0 0.00 0.02 0.02 94 1013.4
20260504130424 52 98 0.0 0.0 0.00 0.02 0.02 94 1013.4
20260504110532 52 302 0.0 0.0 0.00 0.01 0.01 94 1013.3
20260504110412 52 328 0.0 0.0 0.00 0.01 0.01 94 1013.3
20260504100530 52 86 0.0 0.0 0.00 0.01 0.01 94 1013.1
20260504100430 52 296 0.0 0.0 0.00 0.01 0.01 94 1013.1
20260504081924 53 290 0.0 0.0 0.01 0.01 0.01 93 1013.1
20260504081519 53 120 0.0 0.0 0.01 0.01 0.01 94 1013.1
20260504081420 53 117 0.0 0.0 0.01 0.01 0.01 94 1013.2
20260504081017 53 126 0.0 0.0 0.01 0.01 0.01 94 1013.2
20260504080917 53 32 0.0 0.0 0.01 0.01 0.01 93 1013.2
20260504080520 53 324 0.0 0.0 0.01 0.01 0.01 94 1013.2
20260504080420 53 268 0.0 0.0 0.01 0.01 0.01 94 1013.2
20260504050533 53 169 0.0 0.0 0.00 0.00 0.00 93 1012.6
20260504050414 53 40 0.0 0.0 0.00 0.00 0.00 93 1012.6
20260504050023 53 167 0.0 0.0 0.00 0.00 0.00 93 1012.7
20260504045924 53 269 0.0 0.0 0.00 0.00 0.00 93 1012.6
20260504045526 53 263 0.0 0.0 0.00 0.00 0.00 93 1012.5
20260504045428 53 82 0.0 0.0 0.00 0.00 0.00 93 1012.6
20260504045027 53 312 0.0 0.0 0.00 0.00 0.00 93 1012.4
20260504044929 53 65 0.0 0.0 0.00 0.00 0.00 93 1012.5
20260504044527 53 343 0.0 0.0 0.00 0.00 0.00 93 1012.4
20260504044430 53 126 0.0 0.0 0.00 0.00 0.00 93 1012.4
20260504044030 53 109 0.0 0.0 0.00 0.00 0.00 93 1012.3
20260504043912 53 75 0.0 0.0 0.00 0.00 0.00 93 1012.1
20260504043515 53 290 0.0 0.0 0.00 0.00 0.00 93 1012.2
20260504043433 53 72 0.0 0.0 0.00 0.00 0.00 93 1012.2
20260504043031 53 78 0.0 0.0 0.00 0.00 0.00 93 1012.1
20260504042932 53 165 0.0 0.0 0.00 0.00 0.00 93 1012.0
20260504042531 53 303 0.0 0.0 0.00 0.00 0.00 93 1012.1
20260504042431 53 257 0.0 0.0 0.00 0.00 0.00 93 1012.0
20260504042029 53 353 0.0 0.0 0.00 0.00 0.00 93 1012.1
20260504041934 53 176 0.0 0.0 0.00 0.00 0.00 93 1012.1
20260504041530 53 97 0.0 0.0 0.00 0.00 0.00 93 1012.0
20260504041416 53 314 0.0 0.0 0.00 0.00 0.00 93 1012.1
20260504041031 53 342 0.0 0.0 0.00 0.00 0.00 93 1012.0
20260504040917 53 297 0.0 0.0 0.00 0.00 0.00 93 1012.0
20260504040514 53 150 0.0 0.0 0.00 0.00 0.00 93 1012.0
20260504040415 53 226 0.0 0.0 0.00 0.00 0.00 93 1012.0
20260504040026 53 288 0.0 0.0 0.00 0.00 0.00 93 1011.9
20260504035927 53 39 0.0 0.0 0.00 0.00 0.00 93 1011.8
20260504035526 53 319 0.0 0.0 0.00 0.00 0.00 93 1011.9
20260504035426 53 65 0.0 0.0 0.00 0.00 0.00 93 1011.8
20260504035028 53 302 0.0 0.0 0.00 0.00 0.00 93 1011.8
20260504034927 53 248 0.0 0.0 0.00 0.00 0.00 93 1011.8
20260504034524 53 315 0.0 0.0 0.00 0.00 0.00 93 1011.7
20260504034427 52 241 0.0 0.0 0.00 0.00 0.00 93 1011.7
20260504034027 53 172 0.0 0.0 0.00 0.00 0.00 93 1011.7
20260504033929 52 314 0.0 0.0 0.00 0.00 0.00 93 1011.7
20260504033532 53 16 0.0 0.0 0.00 0.00 0.00 93 1011.6
20260504033432 52 269 0.0 0.0 0.00 0.00 0.00 93 1011.6
20260504033031 52 244 0.0 0.0 0.00 0.00 0.00 93 1011.6
20260504032931 52 56 0.0 0.0 0.00 0.00 0.00 92 1011.7
20260504032532 52 182 0.0 0.0 0.00 0.00 0.00 92 1011.5
20260504032415 52 139 0.0 0.0 0.00 0.00 0.00 92 1011.5
20260504032016 52 149 0.0 0.0 0.00 0.00 0.00 92 1011.4
20260504031938 52 233 0.0 0.0 0.00 0.00 0.00 92 1011.4
20260504031533 52 73 0.0 0.0 0.00 0.00 0.00 92 1011.4
20260504031419 52 291 0.0 0.0 0.00 0.00 0.00 92 1011.5
20260504031015 52 103 0.0 0.0 0.00 0.00 0.00 92 1011.5
20260504030919 52 2 0.0 0.0 0.00 0.00 0.00 92 1011.4
20260504030515 52 44 0.0 0.0 0.00 0.00 0.00 92 1011.4
20260504030413 52 312 0.0 0.0 0.00 0.00 0.00 92 1011.5
20260504030022 52 80 0.0 0.0 0.00 0.00 0.00 92 1011.4
20260504025921 52 146 0.0 0.0 0.00 0.00 0.00 92 1011.4
20260504025522 52 179 0.0 0.0 0.00 0.00 0.00 92 1011.3
20260504025424 52 1 0.0 0.0 0.00 0.00 0.00 92 1011.3
20260504025025 52 65 0.0 0.0 0.00 0.00 0.00 92 1011.2
20260504024924 52 254 0.0 0.0 0.00 0.00 0.00 92 1011.3
20260504024522 52 322 0.0 0.0 0.00 0.00 0.00 92 1011.2
20260504024424 52 245 0.0 0.0 0.00 0.00 0.00 92 1011.2
20260504024027 52 250 0.0 0.0 0.00 0.00 0.00 92 1011.1
20260504023928 52 283 0.0 0.0 0.00 0.00 0.00 92 1011.1
20260504023527 52 95 0.0 0.0 0.00 0.00 0.00 92 1011.2
20260504023428 52 337 0.0 0.0 0.00 0.00 0.00 92 1011.1
20260504023028 52 124 0.0 0.0 0.00 0.00 0.00 91 1011.1
20260504022929 52 81 0.0 0.0 0.00 0.00 0.00 92 1011.1
20260504022527 52 68 0.0 0.0 0.00 0.00 0.00 91 1011.1
20260504022427 52 128 0.0 0.0 0.00 0.00 0.00 91 1011.1
20260504022027 52 276 0.0 0.0 0.00 0.00 0.00 91 1011.0
20260504021928 52 271 0.0 0.0 0.00 0.00 0.00 91 1011.1
20260504021527 52 305 0.0 0.0 0.00 0.00 0.00 91 1011.0
20260504021432 52 337 0.0 0.0 0.00 0.00 0.00 91 1010.9
20260504021029 53 82 0.0 0.0 0.00 0.00 0.00 91 1010.9
20260504020933 53 340 0.0 0.0 0.00 0.00 0.00 91 1010.8
20260504020530 53 301 0.0 0.0 0.00 0.00 0.00 91 1010.8
20260504020427 53 296 0.0 0.0 0.00 0.00 0.00 91 1010.8
20260504020019 53 340 0.0 0.0 0.00 0.00 0.00 91 1010.7
20260504015921 53 63 0.0 0.0 0.00 0.00 0.00 91 1010.8
20260504015523 53 54 0.0 0.0 0.00 0.00 0.00 90 1010.7
20260504015424 53 167 0.0 0.0 0.00 0.00 0.00 90 1010.8
20260504015025 53 321 0.0 0.0 0.00 0.00 0.00 90 1010.6
20260504014926 53 302 0.0 0.0 0.00 0.00 0.00 90 1010.7
20260504014523 53 63 0.0 0.0 0.00 0.00 0.00 90 1010.6
20260504014424 53 215 0.0 0.0 0.00 0.00 0.00 90 1010.7
20260504014023 53 337 0.0 0.0 0.00 0.00 0.00 90 1010.7
20260504013924 53 80 0.0 0.0 0.00 0.00 0.00 90 1010.7
20260504013527 53 311 0.0 0.0 0.00 0.00 0.00 90 1010.6
20260504013427 53 101 0.0 0.0 0.00 0.00 0.00 90 1010.6
20260504013030 53 352 0.0 0.0 0.00 0.00 0.00 89 1010.5
20260504012927 53 289 0.0 0.0 0.00 0.00 0.00 89 1010.5
20260504012527 53 118 0.0 0.0 0.00 0.00 0.00 89 1010.6
20260504012427 53 257 0.0 0.0 0.00 0.00 0.00 89 1010.5
20260504012025 54 38 0.0 0.0 0.00 0.00 0.00 89 1010.5
20260504011925 54 347 0.0 0.0 0.00 0.00 0.00 88 1010.5
20260504011524 54 327 0.0 0.0 0.00 0.00 0.00 88 1010.4
20260504011424 54 184 0.0 0.0 0.00 0.00 0.00 88 1010.4
20260504011021 54 293 0.0 0.0 0.00 0.00 0.00 88 1010.3
20260504010924 54 333 0.0 0.0 0.00 0.00 0.00 88 1010.2
20260504010520 54 249 0.0 0.0 0.00 0.00 0.00 88 1010.2
20260504010425 54 207 0.0 0.0 0.00 0.00 0.00 88 1010.2
20260504010032 55 109 0.0 0.0 0.00 0.00 0.00 88 1010.3
20260504005935 55 299 0.0 0.0 0.00 0.00 0.00 88 1010.3
20260504005533 55 91 0.0 0.0 0.00 0.00 0.00 87 1010.2
20260504005413 55 309 0.0 0.0 0.00 0.00 0.00 87 1010.3
20260504005039 55 75 0.0 0.0 0.00 0.00 0.00 88 1010.1
20260504004518 55 305 0.0 0.0 0.00 0.00 0.00 88 1010.0
20260504004421 55 239 0.0 0.0 0.00 0.00 0.00 88 1010.0
20260504004020 55 313 0.0 0.0 0.00 0.00 0.00 87 1010.2
20260504003920 55 283 0.0 0.0 0.00 0.00 0.00 87 1010.1
20260504003519 55 281 0.0 0.0 0.00 0.00 0.00 87 1010.1
20260504003420 55 302 0.0 0.0 0.00 0.00 0.00 87 1010.2
20260504003017 55 164 0.0 0.0 0.00 0.00 0.00 87 1010.2
20260504002918 55 334 0.0 0.0 0.00 0.00 0.00 87 1010.2
20260504002517 55 82 0.0 0.0 0.00 0.00 0.00 86 1010.2
20260504002435 55 213 0.0 0.0 0.00 0.00 0.00 86 1010.2
20260504002033 55 160 0.0 0.0 0.00 0.00 0.00 86 1010.3
20260504001933 55 51 0.0 0.0 0.00 0.00 0.00 86 1010.3
20260504001527 55 68 0.0 0.0 0.00 0.00 0.00 86 1010.4
20260504001435 55 82 0.0 0.0 0.00 0.00 0.00 86 1010.4
20260504001031 55 92 0.0 0.0 0.00 0.00 0.00 86 1010.3
20260504000936 55 96 0.0 0.0 0.00 0.00 0.00 86 1010.4
20260504000534 56 157 0.0 0.0 0.00 0.00 0.00 85 1010.3
20260504000417 56 358 0.0 0.0 0.00 0.00 0.00 85 1010.4
20260504000018 56 113 0.0 0.0 0.00 0.00 0.00 85 1010.5
20260503235919 56 122 0.0 0.0 0.00 0.00 0.00 85 1010.5
20260503235520 56 23 0.0 0.0 0.00 0.00 0.00 84 1010.4
20260503235419 56 288 0.0 0.0 0.00 0.00 0.00 84 1010.4
20260503235017 56 307 0.0 0.0 0.00 0.00 0.00 83 1010.4
20260503234918 56 322 0.0 0.0 0.00 0.00 0.00 83 1010.3
20260503234516 57 87 0.0 0.0 0.00 0.00 0.00 82 1010.3
20260503234418 57 158 0.0 0.0 0.00 0.00 0.00 82 1010.4
20260503234017 58 215 0.0 0.0 0.00 0.00 0.00 81 1010.4
20260503233920 58 278 0.0 0.0 0.00 0.00 0.00 81 1010.4
20260503233521 59 290 0.0 0.0 0.00 0.00 0.00 80 1010.5
20260503233420 59 278 0.0 0.0 0.00 0.00 0.00 80 1010.4
20260503233019 59 14 0.0 0.0 0.00 0.00 0.00 80 1010.3
20260503232919 59 316 0.0 0.0 0.00 0.00 0.00 80 1010.3
20260503232515 60 293 0.0 0.0 0.00 0.00 0.00 78 1010.3
20260503232434 60 294 0.0 0.0 0.00 0.00 0.00 78 1010.2
20260503232032 61 7 0.0 0.0 0.00 0.00 0.00 77 1010.3
20260503231931 61 300 0.0 0.0 0.00 0.00 0.00 77 1010.3
20260503231525 62 300 0.0 0.0 0.00 0.00 0.00 77 1010.3
20260503231430 62 151 0.0 0.0 0.00 0.00 0.00 77 1010.2
20260503231024 63 263 0.0 0.0 0.00 0.00 0.00 75 1010.3
20260503230928 63 326 0.0 0.0 0.00 0.00 0.00 76 1010.3
20260503230522 63 64 0.0 0.0 0.00 0.00 0.00 76 1010.3
20260503230422 63 122 0.0 0.0 0.00 0.00 0.00 76 1010.3
20260503230032 63 133 0.0 0.0 0.00 0.00 0.00 76 1010.2
20260503225929 63 255 0.0 0.0 0.00 0.00 0.00 76 1010.3
20260503225528 64 291 0.0 0.0 0.00 0.00 0.00 75 1010.3
20260503225430 64 229 0.0 0.0 0.00 0.00 0.00 75 1010.4
20260503225031 64 283 0.0 0.0 0.00 0.00 0.00 75 1010.4
20260503224932 64 327 0.0 0.0 0.00 0.00 0.00 75 1010.3
20260503224531 65 300 0.0 0.0 0.00 0.00 0.00 74 1010.4
20260503224431 65 288 0.0 0.0 0.00 0.00 0.00 74 1010.4
20260503224028 65 290 0.0 0.0 0.00 0.00 0.00 73 1010.5
20260503223926 66 319 0.0 0.0 0.00 0.00 0.00 73 1010.5
20260503223524 66 298 0.0 0.0 0.00 0.00 0.00 72 1010.6
20260503223424 66 271 0.0 0.0 0.00 0.00 0.00 73 1010.7
20260503223024 66 282 0.0 0.0 0.00 0.00 0.00 72 1010.7
20260503222926 66 271 0.0 0.0 0.00 0.00 0.00 73 1010.8
20260503222525 66 194 0.0 0.0 0.00 0.00 0.00 73 1010.7
20260503222426 66 315 0.0 0.0 0.00 0.00 0.00 72 1010.8
20260503222027 66 278 0.0 0.0 0.00 0.00 0.00 72 1010.9
20260503221929 66 288 0.0 0.0 0.00 0.00 0.00 73 1011.0
20260503221525 66 304 0.0 0.0 0.00 0.00 0.00 73 1011.0
20260503221432 66 188 0.0 0.0 0.00 0.00 0.00 74 1011.0
20260503221028 65 294 0.0 0.0 0.00 0.00 0.00 74 1011.0
20260503220931 65 302 0.0 0.0 0.00 0.00 0.00 75 1011.0
20260503220528 65 280 0.0 0.0 0.00 0.00 0.00 75 1011.0
20260503220412 65 269 0.0 0.0 0.00 0.00 0.00 75 1011.0
20260503220016 64 236 0.0 0.0 0.00 0.00 0.00 74 1011.0
20260503215917 64 268 0.0 0.0 0.00 0.00 0.00 74 1011.1
20260503215518 64 285 0.0 0.0 0.00 0.00 0.00 74 1011.1
20260503215418 64 283 0.0 0.0 0.00 0.00 0.00 74 1011.0
20260503215014 65 263 0.0 0.0 0.00 0.00 0.00 73 1011.0
20260503214933 65 304 0.0 0.0 0.00 0.00 0.00 73 1011.0
20260503214531 65 306 0.0 0.0 0.00 0.00 0.00 73 1010.9
20260503214432 65 302 0.0 0.0 0.00 0.00 0.00 73 1010.9
20260503214032 65 280 0.0 0.0 0.00 0.00 0.00 71 1010.9
20260503213933 66 306 0.0 0.0 0.00 0.00 0.00 71 1010.9
20260503213532 66 313 0.0 0.0 0.00 0.00 0.00 71 1010.9
20260503213412 67 285 0.0 0.0 0.00 0.00 0.00 70 1010.8
20260503213014 67 310 0.0 0.0 0.00 0.00 0.00 71 1010.8
20260503212915 67 292 0.0 0.0 0.00 0.00 0.00 70 1010.8
20260503212514 68 280 0.0 0.0 0.00 0.00 0.00 71 1010.8
20260503212415 67 289 0.0 0.0 0.00 0.00 0.00 71 1010.9
20260503212015 67 237 0.0 0.0 0.00 0.00 0.00 72 1010.8
20260503211937 67 297 0.0 0.0 0.00 0.00 0.00 72 1010.9
20260503211529 67 321 0.0 0.0 0.00 0.00 0.00 71 1011.0
20260503211433 67 287 0.0 0.0 0.00 0.00 0.00 72 1011.0
20260503211030 66 297 0.0 0.0 0.00 0.00 0.00 72 1011.0
20260503210932 66 296 0.0 0.0 0.00 0.00 0.00 71 1011.0
20260503210533 66 279 0.0 0.0 0.00 0.00 0.00 71 1011.0
20260503210413 66 264 0.0 0.0 0.00 0.00 0.00 71 1011.0
20260503210019 67 295 0.0 0.0 0.00 0.00 0.00 69 1011.0
20260503205920 68 274 0.0 0.0 0.00 0.00 0.00 70 1011.0
20260503205517 69 281 0.0 0.0 0.00 0.00 0.00 67 1010.9
20260503205418 70 277 0.0 0.0 0.00 0.00 0.00 66 1010.9
20260503205018 71 303 0.0 0.0 0.00 0.00 0.00 66 1010.9
20260503204919 71 319 0.0 0.0 0.00 0.00 0.00 66 1010.9
20260503204516 72 301 0.0 0.0 0.00 0.00 0.00 66 1010.9
20260503204417 72 276 0.0 0.0 0.00 0.00 0.00 66 1010.9
20260503204017 71 292 0.0 0.0 0.00 0.00 0.00 69 1011.0
20260503203918 71 293 0.0 0.0 0.00 0.00 0.00 68 1010.9
20260503203520 70 327 0.0 0.0 0.00 0.00 0.00 70 1010.9
20260503203418 70 342 0.0 0.0 0.00 0.00 0.00 70 1010.9
20260503203014 69 287 0.0 0.0 0.00 0.00 0.00 72 1010.9
20260503202934 69 287 0.0 0.0 0.00 0.00 0.00 70 1010.9
20260503202531 69 283 0.0 0.0 0.00 0.00 0.00 70 1010.8
20260503202430 69 281 0.0 0.0 0.00 0.00 0.00 69 1010.8
20260503202026 70 283 0.0 0.0 0.00 0.00 0.00 71 1010.9
20260503201929 70 303 0.0 0.0 0.00 0.00 0.00 70 1010.9
20260503201524 69 122 0.0 0.0 0.00 0.00 0.00 72 1011.1
20260503201429 69 122 0.0 0.0 0.00 0.00 0.00 72 1011.0